TimeCST,TemperatureF,Dew PointF,Humidity,Sea Level PressureIn,VisibilityMPH,Wind Direction,Wind SpeedMPH,Gust SpeedMPH,PrecipitationIn,Events,Conditions,WindDirDegrees,DateUTC
12:53 AM,51.1,41.0,68,30.38,10.0,WSW,8.1,-,N/A,,Mostly Cloudy,240,2013-11-08 06:53:00
1:53 AM,48.0,42.1,80,30.36,10.0,SSW,4.6,-,N/A,,Mostly Cloudy,200,2013-11-08 07:53:00
2:53 AM,46.9,41.0,80,30.35,10.0,Calm,Calm,-,N/A,,Mostly Cloudy,0,2013-11-08 08:53:00
3:53 AM,48.0,42.1,80,30.34,10.0,SSW,3.5,-,N/A,,Mostly Cloudy,210,2013-11-08 09:53:00
4:53 AM,48.0,42.1,80,30.32,10.0,Calm,Calm,-,N/A,,Scattered Clouds,0,2013-11-08 10:53:00
5:53 AM,44.1,39.0,82,30.33,10.0,Calm,Calm,-,N/A,,Scattered Clouds,0,2013-11-08 11:53:00
6:53 AM,42.1,39.0,89,30.33,10.0,SSW,5.8,-,N/A,,Mostly Cloudy,200,2013-11-08 12:53:00
7:53 AM,46.9,42.1,83,30.34,10.0,South,3.5,-,N/A,,Mostly Cloudy,190,2013-11-08 13:53:00
8:53 AM,54.0,43.0,66,30.35,10.0,SSW,4.6,-,N/A,,Mostly Cloudy,200,2013-11-08 14:53:00
9:53 AM,59.0,41.0,51,30.34,10.0,South,9.2,-,N/A,,Mostly Cloudy,180,2013-11-08 15:53:00
10:53 AM,63.0,39.9,43,30.32,10.0,South,10.4,-,N/A,,Mostly Cloudy,170,2013-11-08 16:53:00
11:53 AM,64.0,35.1,34,30.29,10.0,South,17.3,-,N/A,,Mostly Cloudy,190,2013-11-08 17:53:00
12:53 PM,64.0,37.0,37,30.25,10.0,South,17.3,-,N/A,,Mostly Cloudy,180,2013-11-08 18:53:00
1:53 PM,64.0,37.9,38,30.22,10.0,South,16.1,-,N/A,,Mostly Cloudy,190,2013-11-08 19:53:00
2:53 PM,64.0,39.0,40,30.21,10.0,South,15.0,-,N/A,,Mostly Cloudy,190,2013-11-08 20:53:00
3:53 PM,63.0,37.9,40,30.20,10.0,SSW,13.8,-,N/A,,Overcast,200,2013-11-08 21:53:00
4:53 PM,60.1,39.9,47,30.18,10.0,South,13.8,-,N/A,,Overcast,190,2013-11-08 22:53:00
5:53 PM,59.0,39.0,48,30.17,10.0,South,12.7,-,N/A,,Overcast,180,2013-11-08 23:53:00
6:53 PM,59.0,41.0,51,30.18,10.0,South,9.2,-,N/A,,Overcast,170,2013-11-09 00:53:00
7:53 PM,59.0,42.1,53,30.17,10.0,South,9.2,-,N/A,,Overcast,180,2013-11-09 01:53:00
8:53 PM,57.9,42.1,56,30.15,10.0,South,10.4,-,N/A,,Overcast,170,2013-11-09 02:53:00
9:53 PM,57.9,43.0,58,30.14,10.0,South,9.2,-,N/A,,Overcast,170,2013-11-09 03:53:00
10:53 PM,57.0,43.0,59,30.12,10.0,South,10.4,-,0.00,Rain,Light Rain,180,2013-11-09 04:53:00
11:53 PM,57.0,44.1,62,30.12,10.0,South,9.2,-,0.00,Rain,Light Rain,180,2013-11-09 05:53:00